Location: Central Falls
(41.8900°N, 71.3929°W)
Time: 04:18:37
(UTC+00:00)

Tiros 1 - Pass Details

Date: 13 December 2023
Orbit: 625 x 658 km, 48.4° (Epoch: 01 March)

Event Time Altitude Azimuth Distance (km) Brightness Sun altitude
Rises 11:00:30 0° 297° (WNW) 2,987 - -11.5°
Reaches altitude 10° 11:02:51 10° 299° (WNW) 2,075 - -11.1°
Exits shadow 11:03:38 15° 300° (WNW) 1,772 8.7 -11.0°
Maximum altitude 11:07:39 80° 26° (NNE) 672 7.2 -10.3°
Drops below altitude 10° 11:12:26 10° 114° (ESE) 2,064 11.4 -9.5°
Sets 11:14:46 0° 116° (ESE) 2,971 13.0 -9.1°
